Regional Weather Roundup
Issued by NWS

Home | Current Version | Previous Version | Graphics & Text | Print | Product List | Glossary Off
Versions: 1 2 3 4 5 6 7 8 9 10 11 12 13 14 15 16 17 18 19 20 21 22 23 24 25 26 27 28 29 30 31 32 33 34 35 36 37 38 39 40 41 42 43 44 45 46 47 48 49 50

000
ASUS43 KDMX 271403
RWRIA

WEATHER ROUNDUP FOR IOWA
NATIONAL WEATHER SERVICE DES MOINES IA
900 AM CDT SAT AUG 27 2016

NOTE: "FAIR" INDICATES FEW OR NO CLOUDS BELOW 12,000 FEET WITH NO
SIGNIFICANT WEATHER AND/OR OBSTRUCTIONS TO VISIBILITY.

* - THESE STATIONS ARE NOT NWS STATIONS...THUS NOT UNDER NWS
QUALITY CONTROL.  THEY ALSO DO NOT REPORT WEATHER SUCH
AS PRECIPITATION OR FOG.

IAZ001>003-012>014-020>022-031>034-043>046-271500-
   NORTHWEST IOWA

CITY           SKY/WX    TMP DP  RH WIND       PRES   REMARKS
CARROLL *      CLOUDY    63  63 100 VRB3      30.05R FOG
CHEROKEE *     CLOUDY    63  63 100 S5        30.03R FOG
DENISON *      CLOUDY    64  64 100 CALM      30.02S FOG
LE MARS *      CLOUDY    64  63  94 VRB3      30.04R FOG
ORANGE CITY *  CLOUDY    63  63 100 S5        30.03S FOG
SHELDON *      CLOUDY    63  63 100 S3        30.02S FOG
SIOUX CITY     CLOUDY    66  63  90 CALM      30.03S FOG
SPENCER        CLOUDY    61  60  97 S5        30.03F FOG
STORM LAKE *   FOG       63  63 100 S6        30.05R VSB<1/4
$$

IAZ055>058-069>071-079>083-090>094-271500-
   SOUTHWEST IOWA

CITY           SKY/WX    TMP DP  RH WIND       PRES   REMARKS
ATLANTIC *     FOG       66  66 100 CALM      30.03F VSB 1/4
AUDUBON *      FOG       64  61  88 CALM      30.05S VSB 1/4
CLARINDA *       N/A     70  68  94 MISG      30.06R
COUNCIL BLFS * FOG       66  66 100 W3        30.04R VSB 1/2
CRESTON *      FOG       68  68 100 CALM      30.06F VSB 1/4
HARLAN  *      FOG       64  64 100 CALM      30.06F VSB 1/4
LAMONI         CLOUDY    68  68 100 SE3       30.05S
RED OAK *      CLOUDY    68  68 100 CALM      30.03S FOG
SHENANDOAH *   CLOUDY    68 -38   1 CALM      30.04S
$$

IAZ047>049-059>061-072>074-084-271500-
   CENTRAL IOWA

CITY           SKY/WX    TMP DP  RH WIND       PRES   REMARKS
AMES           CLOUDY    64  64 100 S5        30.04R
ANKENY *         N/A    N/A N/A N/A MISG        N/A
BOONE *        FOG       63  63 100 CALM      30.04S VSB 1/2
CHARITON *       N/A     68  66  94 MISG      30.05R
DES MOINES     CLOUDY    66  64  93 CALM      30.04R FOG
GRINNELL*      CLOUDY    67  65  94 S7        30.04S
KNOXVILLE *    CLOUDY    66  64  94 CALM      30.03S FOG
MARSHALLTOWN   CLOUDY    65  65 100 SE6       30.03R FOG
NEWTON *       CLOUDY    66  66 100 SW5       30.04R FOG
PERRY *        CLOUDY    64  64  99 SE3       30.04F FOG
$$

IAZ004>006-015-016-023>025-035-036-271500-
   NORTH CENTRAL IOWA

CITY           SKY/WX    TMP DP  RH WIND       PRES   REMARKS
ALGONA *       CLOUDY    63  61  94 SE5       30.05S
ESTHERVILLE    CLOUDY    60  60 100 S8        30.03F
FORT DODGE *   CLOUDY    63  59  88 CALM      30.06S
MASON CITY     CLOUDY    62  61  96 SE5       30.06S
FOREST CITY *    N/A    N/A N/A N/A MISG        N/A
WEBSTER CITY * CLOUDY    63  63 100 CALM      30.03S
IOWA FALLS *   CLOUDY    64  62  93 CALM      30.05S FOG
$$

IAZ007>011-017>019-026>030-037>042-050>054-066-271500-
   NORTHEAST IOWA

CITY           SKY/WX    TMP DP  RH WIND       PRES   REMARKS
CEDAR RAPIDS   CLOUDY    70  70 100 S8        30.02S FOG
CHARLES CITY * CLOUDY    64  64 100 E8G14     30.05S
CLINTON *      CLOUDY    72  70  93 S7        30.04F
DECORAH *      CLOUDY    63  63 100 E6        30.05S
DUBUQUE        CLOUDY    65  64  97 E7        30.05S FOG
MONTICELLO *   CLOUDY    66  66 100 CALM      30.03S FOG
OELWEIN *      CLOUDY    63  63 100 E8        30.05S FOG
WATERLOO       CLOUDY    64  63  96 E7        30.02S
$$

IAZ064-065-067-068-078-271500-
   EAST CENTRAL IOWA

CITY           SKY/WX    TMP DP  RH WIND       PRES   REMARKS
DAVENPORT      PTSUNNY   73  69  87 SW9       30.03F
IOWA CITY      CLOUDY    71  69  93 S13       30.04R
MT. PLEASANT * CLOUDY    74  73  96 SW8       30.04F
MUSCATINE *    PTSUNNY   72  68  88 S12       30.03S
QUAD CITIES    MOSUNNY   75  70  84 SW9       30.02F
$$

IAZ062-063-075>077-085>089-095>099-271500-
   SOUTHEAST IOWA

CITY           SKY/WX    TMP DP  RH WIND       PRES   REMARKS
BURLINGTON     PTSUNNY   73  72  96 SW7       30.04S
FAIRFIELD *    CLOUDY    72  68  88 SW6       30.04R
FORT MADISON * MOSUNNY   73  70  88 S7        30.05F
KEOKUK *       PTSUNNY   73  70  88 VRB6      30.05R
OSKALOOSA *    CLOUDY    68  66  94 W9        30.04S
CENTERVILLE *    N/A     72  68  88 CALM      30.06S
OTTUMWA        PTSUNNY   71  67  87 W7        30.03S
WASHINGTON *   CLOUDY    72  70  94 SW7       30.04S
$$

ABBREVIATIONS USED IN REMARKS
   TC - TEMPERATURES IN CELSIUS
  WCI - WIND CHILL INDEX
   HX - HEAT INDEX
  VSB - VISIBILITY
$$





USA.gov is the U.S. government's official web portal to all federal, state and local government web resources and services.